| time (UTC) | temp C | wind direction | speed KPH | gust KPH | rain 1hr cm | rain 24hr cm | rain mn cm | humidity % | barometer mb |
| 20260504081748 | 10 | 21 | 40.2 | 46.7 | 0.00 | 0.00 | 0.00 | 42 | 1012.4 |
| 20260504081312 | 10 | 21 | 43.5 | 49.9 | 0.00 | 0.00 | 0.00 | 43 | 1012.1 |
| 20260504081245 | 10 | 20 | 43.5 | 57.9 | 0.00 | 0.00 | 0.00 | 42 | 1012.2 |
| 20260504080741 | 11 | 19 | 41.8 | 54.7 | 0.00 | 0.00 | 0.00 | 42 | 1011.8 |
| 20260504080238 | 11 | 9 | 46.7 | 56.3 | 0.00 | 0.00 | 0.00 | 41 | 1011.3 |
| 20260504070205 | 12 | 40 | 38.6 | 43.5 | 0.00 | 0.00 | 0.00 | 35 | 1010.3 |
| 20260504060126 | 14 | 28 | 27.4 | 33.8 | 0.00 | 0.00 | 0.00 | 36 | 1008.9 |
| 20260504050554 | 13 | 45 | 30.6 | 37.0 | 0.00 | 0.00 | 0.00 | 38 | 1008.0 |
| 20260504045719 | 12 | 46 | 19.3 | 22.5 | 0.00 | 0.00 | 0.00 | 39 | 1008.4 |
| 20260504045548 | 12 | 45 | 19.3 | 20.9 | 0.00 | 0.00 | 0.00 | 39 | 1008.1 |
| 20260504045043 | 13 | 45 | 17.7 | 22.5 | 0.00 | 0.00 | 0.00 | 38 | 1008.1 |
| 20260504044816 | 13 | 45 | 17.7 | 19.3 | 0.00 | 0.00 | 0.00 | 38 | 1008.1 |
| 20260504044718 | 13 | 45 | 17.7 | 20.9 | 0.00 | 0.00 | 0.00 | 38 | 1008.1 |
| 20260504044541 | 13 | 46 | 19.3 | 20.9 | 0.00 | 0.00 | 0.00 | 37 | 1007.9 |
| 20260504044038 | 13 | 45 | 19.3 | 20.9 | 0.00 | 0.00 | 0.00 | 36 | 1007.8 |
| 20260504043719 | 13 | 45 | 17.7 | 20.9 | 0.00 | 0.00 | 0.00 | 36 | 1008.0 |
| 20260504043534 | 14 | 45 | 19.3 | 20.9 | 0.00 | 0.00 | 0.00 | 35 | 1007.9 |
| 20260504043032 | 14 | 45 | 20.9 | 22.5 | 0.00 | 0.00 | 0.00 | 36 | 1007.8 |
| 20260504042718 | 14 | 45 | 20.9 | 24.1 | 0.00 | 0.00 | 0.00 | 35 | 1008.0 |
| 20260504042529 | 14 | 45 | 20.9 | 24.1 | 0.00 | 0.00 | 0.00 | 35 | 1007.9 |
| 20260504042026 | 15 | 45 | 22.5 | 27.4 | 0.00 | 0.00 | 0.00 | 34 | 1007.8 |
| 20260504041718 | 15 | 45 | 17.7 | 19.3 | 0.00 | 0.00 | 0.00 | 34 | 1008.0 |
| 20260504041522 | 15 | 45 | 17.7 | 19.3 | 0.00 | 0.00 | 0.00 | 34 | 1007.7 |
| 20260504041018 | 15 | 49 | 16.1 | 19.3 | 0.00 | 0.00 | 0.00 | 34 | 1007.8 |
| 20260504040718 | 15 | 65 | 14.5 | 16.1 | 0.00 | 0.00 | 0.00 | 34 | 1008.0 |
| 20260504040619 | 15 | 59 | 14.5 | 16.1 | 0.00 | 0.00 | 0.00 | 33 | 1007.9 |
| 20260504040516 | 15 | 63 | 12.9 | 16.1 | 0.00 | 0.00 | 0.00 | 33 | 1007.8 |
| 20260504040012 | 15 | 66 | 14.5 | 16.1 | 0.00 | 0.00 | 0.00 | 32 | 1007.7 |
| 20260504035509 | 16 | 46 | 14.5 | 14.5 | 0.00 | 0.00 | 0.00 | 30 | 1007.8 |
| 20260504035005 | 16 | 45 | 16.1 | 17.7 | 0.00 | 0.00 | 0.00 | 29 | 1007.8 |
| 20260504034503 | 17 | 45 | 17.7 | 19.3 | 0.00 | 0.00 | 0.00 | 27 | 1007.6 |
| 20260504034000 | 17 | 43 | 16.1 | 17.7 | 0.00 | 0.00 | 0.00 | 26 | 1007.7 |
| 20260504033457 | 18 | 22 | 16.1 | 17.7 | 0.00 | 0.00 | 0.00 | 27 | 1007.7 |
| 20260504032955 | 18 | 15 | 20.9 | 24.1 | 0.00 | 0.00 | 0.00 | 27 | 1007.7 |
| 20260504032619 | 18 | 7 | 22.5 | 27.4 | 0.00 | 0.00 | 0.00 | 27 | 1007.7 |
| 20260504032519 | 18 | 8 | 20.9 | 25.7 | 0.00 | 0.00 | 0.00 | 27 | 1007.8 |
| 20260504032451 | 18 | 6 | 24.1 | 30.6 | 0.00 | 0.00 | 0.00 | 27 | 1007.7 |
| 20260504031948 | 18 | 3 | 22.5 | 27.4 | 0.00 | 0.00 | 0.00 | 26 | 1007.6 |
| 20260504031616 | 18 | 8 | 20.9 | 27.4 | 0.00 | 0.00 | 0.00 | 26 | 1007.9 |
| 20260504031445 | 19 | 8 | 20.9 | 27.4 | 0.00 | 0.00 | 0.00 | 25 | 1007.7 |
| 20260504030942 | 19 | 4 | 20.9 | 24.1 | 0.00 | 0.00 | 0.00 | 26 | 1007.7 |
| 20260504030617 | 19 | 3 | 19.3 | 24.1 | 0.00 | 0.00 | 0.00 | 25 | 1007.7 |
| 20260504030439 | 20 | 1 | 19.3 | 24.1 | 0.00 | 0.00 | 0.00 | 25 | 1007.7 |
| 20260504025935 | 20 | 4 | 20.9 | 22.5 | 0.00 | 0.00 | 0.00 | 23 | 1007.8 |
| 20260504025618 | 20 | 1 | 25.7 | 30.6 | 0.00 | 0.00 | 0.00 | 23 | 1007.7 |
| 20260504025432 | 20 | 360 | 24.1 | 29.0 | 0.00 | 0.00 | 0.00 | 24 | 1007.5 |
| 20260504024929 | 20 | 3 | 22.5 | 29.0 | 0.00 | 0.00 | 0.00 | 22 | 1007.7 |
| 20260504024618 | 20 | 360 | 24.1 | 29.0 | 0.00 | 0.00 | 0.00 | 22 | 1007.8 |
| 20260504024426 | 21 | 360 | 25.7 | 30.6 | 0.00 | 0.00 | 0.00 | 22 | 1007.7 |
| 20260504023923 | 21 | 360 | 25.7 | 32.2 | 0.00 | 0.00 | 0.00 | 22 | 1007.6 |
| 20260504023419 | 21 | 7 | 24.1 | 29.0 | 0.00 | 0.00 | 0.00 | 23 | 1007.7 |
| 20260504022915 | 21 | 360 | 25.7 | 30.6 | 0.00 | 0.00 | 0.00 | 21 | 1007.6 |
| 20260504022717 | 21 | 360 | 22.5 | 29.0 | 0.00 | 0.00 | 0.00 | 22 | 1007.8 |
| 20260504022412 | 21 | 356 | 25.7 | 29.0 | 0.00 | 0.00 | 0.00 | 21 | 1007.6 |
| 20260504021908 | 21 | 346 | 25.7 | 32.2 | 0.00 | 0.00 | 0.00 | 21 | 1007.7 |
| 20260504021816 | 21 | 346 | 24.1 | 30.6 | 0.00 | 0.00 | 0.00 | 21 | 1007.9 |
| 20260504021406 | 21 | 344 | 22.5 | 27.4 | 0.00 | 0.00 | 0.00 | 21 | 1007.7 |
| 20260504020903 | 21 | 356 | 24.1 | 30.6 | 0.00 | 0.00 | 0.00 | 22 | 1007.8 |
| 20260504020818 | 21 | 356 | 24.1 | 30.6 | 0.00 | 0.00 | 0.00 | 22 | 1008.0 |
| 20260504020359 | 21 | 352 | 25.7 | 33.8 | 0.00 | 0.00 | 0.00 | 22 | 1007.9 |
| 20260504015855 | 21 | 352 | 22.5 | 29.0 | 0.00 | 0.00 | 0.00 | 21 | 1007.9 |
| 20260504015818 | 21 | 352 | 22.5 | 27.4 | 0.00 | 0.00 | 0.00 | 21 | 1008.1 |
| 20260504015351 | 22 | 353 | 27.4 | 32.2 | 0.00 | 0.00 | 0.00 | 21 | 1007.8 |
| 20260504014848 | 22 | 344 | 25.7 | 32.2 | 0.00 | 0.00 | 0.00 | 21 | 1007.8 |
| 20260504014817 | 22 | 344 | 24.1 | 32.2 | 0.00 | 0.00 | 0.00 | 21 | 1008.0 |
| 20260504014343 | 22 | 338 | 29.0 | 38.6 | 0.00 | 0.00 | 0.00 | 21 | 1007.8 |
| 20260504013841 | 22 | 334 | 19.3 | 25.7 | 0.00 | 0.00 | 0.00 | 19 | 1008.1 |
| 20260504013819 | 22 | 334 | 19.3 | 24.1 | 0.00 | 0.00 | 0.00 | 19 | 1008.3 |
| 20260504013339 | 22 | 335 | 27.4 | 38.6 | 0.00 | 0.00 | 0.00 | 19 | 1008.1 |
| 20260504012836 | 22 | 307 | 11.3 | 19.3 | 0.00 | 0.00 | 0.00 | 19 | 1007.9 |
| 20260504012333 | 22 | 312 | 12.9 | 17.7 | 0.00 | 0.00 | 0.00 | 20 | 1008.1 |
| 20260504011831 | 22 | 327 | 16.1 | 22.5 | 0.00 | 0.00 | 0.00 | 20 | 1008.2 |
| 20260504011818 | 22 | 327 | 14.5 | 20.9 | 0.00 | 0.00 | 0.00 | 20 | 1008.4 |
| 20260504011719 | 22 | 326 | 14.5 | 20.9 | 0.00 | 0.00 | 0.00 | 19 | 1008.4 |
| 20260504011327 | 22 | 336 | 25.7 | 35.4 | 0.00 | 0.00 | 0.00 | 20 | 1008.0 |
| 20260504010823 | 22 | 316 | 12.9 | 20.9 | 0.00 | 0.00 | 0.00 | 20 | 1008.2 |
| 20260504010717 | 22 | 314 | 11.3 | 22.5 | 0.00 | 0.00 | 0.00 | 19 | 1008.4 |
| 20260504010319 | 23 | 320 | 14.5 | 20.9 | 0.00 | 0.00 | 0.00 | 20 | 1008.2 |
| 20260504005816 | 23 | 313 | 12.9 | 30.6 | 0.00 | 0.00 | 0.00 | 19 | 1008.2 |
| 20260504005717 | 22 | 313 | 12.9 | 30.6 | 0.00 | 0.00 | 0.00 | 19 | 1008.4 |
| 20260504005313 | 23 | 338 | 24.1 | 32.2 | 0.00 | 0.00 | 0.00 | 19 | 1008.1 |
| 20260504004810 | 23 | 271 | 4.8 | 12.9 | 0.00 | 0.00 | 0.00 | 19 | 1008.4 |
| 20260504004718 | 22 | 271 | 3.2 | 11.3 | 0.00 | 0.00 | 0.00 | 19 | 1008.5 |
| 20260504004308 | 23 | 318 | 11.3 | 17.7 | 0.00 | 0.00 | 0.00 | 19 | 1008.4 |
| 20260504003804 | 23 | 4 | 29.0 | 38.6 | 0.00 | 0.00 | 0.00 | 19 | 1008.2 |
| 20260504003720 | 23 | 4 | 27.4 | 37.0 | 0.00 | 0.00 | 0.00 | 19 | 1008.4 |
| 20260504003301 | 23 | 297 | 8.0 | 20.9 | 0.00 | 0.00 | 0.00 | 18 | 1008.4 |
| 20260504002757 | 23 | 292 | 3.2 | 8.0 | 0.00 | 0.00 | 0.00 | 19 | 1008.5 |
| 20260504002717 | 22 | 292 | 3.2 | 8.0 | 0.00 | 0.00 | 0.00 | 19 | 1008.7 |
| 20260504002254 | 23 | 341 | 25.7 | 33.8 | 0.00 | 0.00 | 0.00 | 17 | 1008.4 |
| 20260504001752 | 23 | 320 | 16.1 | 24.1 | 0.00 | 0.00 | 0.00 | 18 | 1008.2 |
| 20260504001249 | 23 | 324 | 19.3 | 30.6 | 0.00 | 0.00 | 0.00 | 17 | 1008.4 |
| 20260504000816 | 23 | 290 | 6.4 | 17.7 | 0.00 | 0.00 | 0.00 | 17 | 1008.5 |
| 20260504000746 | 23 | 288 | 9.7 | 17.7 | 0.00 | 0.00 | 0.00 | 18 | 1008.5 |
| 20260504000243 | 23 | 313 | 12.9 | 22.5 | 0.00 | 0.00 | 0.00 | 17 | 1008.4 |
| 20260503235817 | 23 | 313 | 14.5 | 20.9 | 0.00 | 0.00 | 0.00 | 18 | 1008.6 |
| 20260503235741 | 23 | 310 | 12.9 | 20.9 | 0.00 | 0.00 | 0.00 | 18 | 1008.4 |
| 20260503235237 | 23 | 289 | 8.0 | 17.7 | 0.00 | 0.00 | 0.00 | 17 | 1008.7 |
| 20260503234916 | 23 | 270 | 17.7 | 24.1 | 0.00 | 0.00 | 0.00 | 18 | 1008.5 |
| 20260503234735 | 23 | 270 | 8.0 | 12.9 | 0.00 | 0.00 | 0.00 | 18 | 1008.5 |
| 20260503234233 | 23 | 292 | 4.8 | 9.7 | 0.00 | 0.00 | 0.00 | 17 | 1008.7 |
| 20260503233919 | 22 | 290 | 4.8 | 11.3 | 0.00 | 0.00 | 0.00 | 18 | 1008.7 |
| 20260503233730 | 22 | 281 | 6.4 | 14.5 | 0.00 | 0.00 | 0.00 | 18 | 1008.7 |
| 20260503233226 | 23 | 348 | 29.0 | 33.8 | 0.00 | 0.00 | 0.00 | 17 | 1008.5 |
| 20260503232918 | 23 | 334 | 29.0 | 37.0 | 0.00 | 0.00 | 0.00 | 17 | 1008.8 |
| 20260503232723 | 23 | 343 | 33.8 | 41.8 | 0.00 | 0.00 | 0.00 | 16 | 1008.5 |
| 20260503232220 | 23 | 271 | 9.7 | 19.3 | 0.00 | 0.00 | 0.00 | 17 | 1008.7 |
| 20260503231917 | 23 | 269 | 11.3 | 16.1 | 0.00 | 0.00 | 0.00 | 17 | 1008.9 |
| 20260503231818 | 23 | 265 | 11.3 | 16.1 | 0.00 | 0.00 | 0.00 | 16 | 1008.9 |
| 20260503231719 | 23 | 270 | 16.1 | 22.5 | 0.00 | 0.00 | 0.00 | 17 | 1008.8 |
| 20260503231215 | 23 | 279 | 9.7 | 19.3 | 0.00 | 0.00 | 0.00 | 17 | 1008.8 |
| 20260503230916 | 23 | 318 | 16.1 | 27.4 | 0.00 | 0.00 | 0.00 | 16 | 1009.0 |
| 20260503230711 | 23 | 270 | 8.0 | 16.1 | 0.00 | 0.00 | 0.00 | 16 | 1009.0 |
| 20260503230208 | 23 | 275 | 9.7 | 24.1 | 0.00 | 0.00 | 0.00 | 18 | 1009.0 |
| 20260503225916 | 23 | 276 | 6.4 | 11.3 | 0.00 | 0.00 | 0.00 | 18 | 1009.2 |
| 20260503225705 | 23 | 286 | 8.0 | 12.9 | 0.00 | 0.00 | 0.00 | 17 | 1009.1 |
| 20260503225200 | 23 | 249 | 8.0 | 19.3 | 0.00 | 0.00 | 0.00 | 18 | 1009.2 |
| 20260503224917 | 23 | 322 | 8.0 | 12.9 | 0.00 | 0.00 | 0.00 | 19 | 1009.6 |
| 20260503224658 | 23 | 322 | 9.7 | 17.7 | 0.00 | 0.00 | 0.00 | 19 | 1009.3 |
| 20260503224155 | 23 | 271 | 4.8 | 12.9 | 0.00 | 0.00 | 0.00 | 19 | 1009.5 |
| 20260503223653 | 23 | 289 | 9.7 | 19.3 | 0.00 | 0.00 | 0.00 | 19 | 1009.3 |
| 20260503223149 | 23 | 247 | 6.4 | 12.9 | 0.00 | 0.00 | 0.00 | 18 | 1009.7 |
| 20260503222918 | 23 | 268 | 9.7 | 16.1 | 0.00 | 0.00 | 0.00 | 19 | 1009.8 |
| 20260503222646 | 23 | 272 | 4.8 | 11.3 | 0.00 | 0.00 | 0.00 | 18 | 1009.8 |
| 20260503222144 | 23 | 271 | 16.1 | 22.5 | 0.00 | 0.00 | 0.00 | 18 | 1009.6 |
| 20260503221918 | 22 | 298 | 4.8 | 9.7 | 0.00 | 0.00 | 0.00 | 18 | 1009.9 |
| 20260503221642 | 22 | 298 | 9.7 | 14.5 | 0.00 | 0.00 | 0.00 | 19 | 1009.9 |
| 20260503221139 | 22 | 269 | 25.7 | 32.2 | 0.00 | 0.00 | 0.00 | 19 | 1009.8 |
| 20260503221016 | 22 | 267 | 16.1 | 22.5 | 0.00 | 0.00 | 0.00 | 19 | 1010.1 |
| 20260503220636 | 22 | 268 | 9.7 | 17.7 | 0.00 | 0.00 | 0.00 | 20 | 1010.1 |
| 20260503220132 | 23 | 286 | 9.7 | 19.3 | 0.00 | 0.00 | 0.00 | 20 | 1010.2 |
| 20260503220019 | 22 | 280 | 9.7 | 20.9 | 0.00 | 0.00 | 0.00 | 19 | 1010.4 |
| 20260503215630 | 22 | 273 | 8.0 | 12.9 | 0.00 | 0.00 | 0.00 | 20 | 1010.2 |
| 20260503215126 | 22 | 270 | 12.9 | 20.9 | 0.00 | 0.00 | 0.00 | 21 | 1010.2 |
| 20260503214625 | 22 | 270 | 11.3 | 17.7 | 0.00 | 0.00 | 0.00 | 19 | 1010.3 |
| 20260503214121 | 22 | 259 | 11.3 | 19.3 | 0.00 | 0.00 | 0.00 | 20 | 1010.6 |
| 20260503214115 | 22 | 259 | 11.3 | 17.7 | 0.00 | 0.00 | 0.00 | 20 | 1010.7 |
| 20260503213620 | 22 | 278 | 6.4 | 9.7 | 0.00 | 0.00 | 0.00 | 20 | 1010.4 |
| 20260503213116 | 22 | 271 | 8.0 | 16.1 | 0.00 | 0.00 | 0.00 | 20 | 1010.7 |
| 20260503212614 | 22 | 264 | 8.0 | 14.5 | 0.00 | 0.00 | 0.00 | 20 | 1010.7 |
| 20260503212117 | 21 | 300 | 6.4 | 14.5 | 0.00 | 0.00 | 0.00 | 21 | 1010.8 |
| 20260503212111 | 22 | 301 | 4.8 | 11.3 | 0.00 | 0.00 | 0.00 | 21 | 1010.7 |
| 20260503211609 | 21 | 278 | 12.9 | 17.7 | 0.00 | 0.00 | 0.00 | 20 | 1010.7 |
| 20260503211118 | 21 | 276 | 12.9 | 24.1 | 0.00 | 0.00 | 0.00 | 20 | 1010.8 |
| 20260503211103 | 22 | 269 | 16.1 | 24.1 | 0.00 | 0.00 | 0.00 | 20 | 1010.6 |
| 20260503210600 | 22 | 251 | 9.7 | 12.9 | 0.00 | 0.00 | 0.00 | 21 | 1011.0 |
| 20260503210118 | 22 | 295 | 9.7 | 22.5 | 0.00 | 0.00 | 0.00 | 22 | 1011.2 |
| 20260503210056 | 22 | 279 | 8.0 | 16.1 | 0.00 | 0.00 | 0.00 | 22 | 1011.0 |
| 20260503205553 | 22 | 307 | 6.4 | 12.9 | 0.00 | 0.00 | 0.00 | 23 | 1010.9 |
| 20260503205216 | 21 | 270 | 12.9 | 17.7 | 0.00 | 0.00 | 0.00 | 21 | 1011.1 |
| 20260503205049 | 21 | 252 | 9.7 | 12.9 | 0.00 | 0.00 | 0.00 | 22 | 1011.0 |
| 20260503204546 | 21 | 270 | 9.7 | 14.5 | 0.00 | 0.00 | 0.00 | 22 | 1011.1 |
| 20260503204218 | 21 | 267 | 11.3 | 16.1 | 0.00 | 0.00 | 0.00 | 22 | 1011.2 |
| 20260503204043 | 21 | 270 | 14.5 | 22.5 | 0.00 | 0.00 | 0.00 | 23 | 1011.2 |
| 20260503203541 | 21 | 267 | 20.9 | 24.1 | 0.00 | 0.00 | 0.00 | 24 | 1011.2 |
| 20260503203316 | 21 | 269 | 6.4 | 11.3 | 0.00 | 0.00 | 0.00 | 23 | 1011.3 |
| 20260503203038 | 21 | 264 | 11.3 | 16.1 | 0.00 | 0.00 | 0.00 | 24 | 1011.3 |
| 20260503202536 | 21 | 262 | 14.5 | 25.7 | 0.00 | 0.00 | 0.00 | 25 | 1011.5 |
| 20260503202319 | 21 | 265 | 9.7 | 16.1 | 0.00 | 0.00 | 0.00 | 24 | 1011.6 |
| 20260503202033 | 21 | 263 | 16.1 | 20.9 | 0.00 | 0.00 | 0.00 | 25 | 1011.4 |
| 20260503201531 | 22 | 270 | 6.4 | 12.9 | 0.00 | 0.00 | 0.00 | 25 | 1011.7 |
| 20260503201319 | 21 | 270 | 12.9 | 25.7 | 0.00 | 0.00 | 0.00 | 26 | 1011.8 |
| 20260503201028 | 21 | 263 | 3.2 | 9.7 | 0.00 | 0.00 | 0.00 | 26 | 1011.8 |
| 20260503200524 | 21 | 277 | 8.0 | 14.5 | 0.00 | 0.00 | 0.00 | 27 | 1011.8 |
| 20260503200021 | 20 | 267 | 8.0 | 19.3 | 0.00 | 0.00 | 0.00 | 26 | 1012.0 |
| 20260503195518 | 20 | 257 | 12.9 | 17.7 | 0.00 | 0.00 | 0.00 | 31 | 1012.2 |
| 20260503195316 | 20 | 257 | 11.3 | 16.1 | 0.00 | 0.00 | 0.00 | 32 | 1012.3 |
| 20260503195015 | 20 | 273 | 6.4 | 12.9 | 0.00 | 0.00 | 0.00 | 34 | 1012.2 |
| 20260503194513 | 20 | 235 | 11.3 | 16.1 | 0.00 | 0.00 | 0.00 | 35 | 1012.3 |
| 20260503194317 | 20 | 241 | 11.3 | 19.3 | 0.00 | 0.00 | 0.00 | 35 | 1012.6 |
| 20260503194012 | 20 | 242 | 8.0 | 12.9 | 0.00 | 0.00 | 0.00 | 35 | 1012.4 |
| 20260503193509 | 20 | 249 | 6.4 | 11.3 | 0.00 | 0.00 | 0.00 | 37 | 1012.5 |
| 20260503193004 | 19 | 252 | 8.0 | 11.3 | 0.00 | 0.00 | 0.00 | 38 | 1012.6 |
| 20260503192500 | 18 | 269 | 4.8 | 8.0 | 0.00 | 0.00 | 0.00 | 38 | 1012.6 |
| 20260503192316 | 18 | 261 | 4.8 | 9.7 | 0.00 | 0.00 | 0.00 | 38 | 1012.8 |
| 20260503191956 | 18 | 277 | 6.4 | 12.9 | 0.00 | 0.00 | 0.00 | 39 | 1012.6 |
| 20260503191454 | 18 | 269 | 8.0 | 9.7 | 0.00 | 0.00 | 0.00 | 38 | 1012.6 |
| 20260503191318 | 18 | 257 | 6.4 | 9.7 | 0.00 | 0.00 | 0.00 | 39 | 1012.8 |
| 20260503190949 | 18 | 261 | 6.4 | 12.9 | 0.00 | 0.00 | 0.00 | 38 | 1012.8 |
| 20260503190447 | 18 | 253 | 8.0 | 11.3 | 0.00 | 0.00 | 0.00 | 38 | 1013.0 |
| 20260503185944 | 18 | 276 | 8.0 | 12.9 | 0.00 | 0.00 | 0.00 | 40 | 1013.0 |
| 20260503185440 | 18 | 280 | 8.0 | 12.9 | 0.00 | 0.00 | 0.00 | 42 | 1013.1 |
| 20260503185317 | 17 | 300 | 3.2 | 6.4 | 0.00 | 0.00 | 0.00 | 42 | 1013.3 |
| 20260503184940 | 17 | 301 | 6.4 | 9.7 | 0.00 | 0.00 | 0.00 | 41 | 1013.2 |
| 20260503184437 | 17 | 269 | 9.7 | 14.5 | 0.00 | 0.00 | 0.00 | 43 | 1013.2 |
| 20260503183933 | 17 | 270 | 9.7 | 14.5 | 0.00 | 0.00 | 0.00 | 43 | 1013.2 |
| 20260503183430 | 17 | 225 | 6.4 | 11.3 | 0.00 | 0.00 | 0.00 | 42 | 1013.3 |
| 20260503183416 | 17 | 225 | 6.4 | 9.7 | 0.00 | 0.00 | 0.00 | 42 | 1013.5 |
| 20260503182927 | 17 | 258 | 9.7 | 12.9 | 0.00 | 0.00 | 0.00 | 44 | 1013.2 |
| 20260503182426 | 17 | 247 | 9.7 | 14.5 | 0.00 | 0.00 | 0.00 | 44 | 1013.3 |
| 20260503182417 | 16 | 247 | 8.0 | 14.5 | 0.00 | 0.00 | 0.00 | 44 | 1013.5 |
| 20260503181923 | 17 | 230 | 8.0 | 12.9 | 0.00 | 0.00 | 0.00 | 44 | 1013.3 |
| 20260503181420 | 16 | 252 | 9.7 | 12.9 | 0.00 | 0.00 | 0.00 | 45 | 1013.4 |
| 20260503180915 | 16 | 251 | 9.7 | 12.9 | 0.00 | 0.00 | 0.00 | 46 | 1013.4 |
| 20260503180418 | 16 | 256 | 4.8 | 8.0 | 0.00 | 0.00 | 0.00 | 45 | 1013.7 |
| 20260503180414 | 16 | 269 | 6.4 | 11.3 | 0.00 | 0.00 | 0.00 | 46 | 1013.5 |
| 20260503175910 | 16 | 257 | 9.7 | 12.9 | 0.00 | 0.00 | 0.00 | 47 | 1013.4 |
| 20260503175418 | 15 | 232 | 9.7 | 14.5 | 0.00 | 0.00 | 0.00 | 46 | 1013.8 |
| 20260503175409 | 15 | 227 | 6.4 | 11.3 | 0.00 | 0.00 | 0.00 | 47 | 1013.6 |
| 20260503174904 | 15 | 256 | 8.0 | 9.7 | 0.00 | 0.00 | 0.00 | 48 | 1013.6 |
| 20260503174516 | 15 | 227 | 8.0 | 11.3 | 0.00 | 0.00 | 0.00 | 47 | 1013.8 |
| 20260503174402 | 15 | 270 | 6.4 | 9.7 | 0.00 | 0.00 | 0.00 | 47 | 1013.6 |
| 20260503173857 | 15 | 255 | 4.8 | 8.0 | 0.00 | 0.00 | 0.00 | 48 | 1013.9 |
| 20260503173517 | 15 | 262 | 9.7 | 12.9 | 0.00 | 0.00 | 0.00 | 47 | 1014.0 |
| 20260503173353 | 15 | 240 | 9.7 | 14.5 | 0.00 | 0.00 | 0.00 | 48 | 1014.0 |
| 20260503172850 | 15 | 264 | 9.7 | 16.1 | 0.00 | 0.00 | 0.00 | 48 | 1014.0 |
| 20260503172519 | 15 | 270 | 8.0 | 12.9 | 0.00 | 0.00 | 0.00 | 49 | 1014.1 |
| 20260503172348 | 15 | 272 | 9.7 | 14.5 | 0.00 | 0.00 | 0.00 | 49 | 1014.0 |
| 20260503171844 | 15 | 262 | 9.7 | 16.1 | 0.00 | 0.00 | 0.00 | 49 | 1014.1 |
| 20260503171617 | 14 | 254 | 9.7 | 12.9 | 0.00 | 0.00 | 0.00 | 51 | 1014.2 |
| 20260503171341 | 14 | 246 | 9.7 | 14.5 | 0.00 | 0.00 | 0.00 | 51 | 1014.0 |
| 20260503170838 | 14 | 229 | 12.9 | 14.5 | 0.00 | 0.00 | 0.00 | 52 | 1014.1 |
| 20260503170716 | 13 | 241 | 14.5 | 19.3 | 0.00 | 0.00 | 0.00 | 51 | 1014.1 |
| 20260503170334 | 13 | 232 | 14.5 | 17.7 | 0.00 | 0.00 | 0.00 | 52 | 1014.0 |
| 20260503150819 | 10 | 225 | 3.2 | 4.8 | 0.00 | 0.00 | 0.00 | 64 | 1015.2 |
| 20260503150727 | 10 | 225 | 4.8 | 6.4 | 0.00 | 0.00 | 0.00 | 63 | 1015.0 |
| 20260503150223 | 10 | 225 | 4.8 | 6.4 | 0.00 | 0.00 | 0.00 | 65 | 1015.0 |
| 20260503140147 | 10 | 180 | 8.0 | 9.7 | 0.00 | 0.00 | 0.00 | 63 | 1014.7 |
| 20260503131117 | 8 | 135 | 3.2 | 6.4 | 0.00 | 0.00 | 0.00 | 61 | 1014.4 |
| 20260503130614 | 8 | 157 | 1.6 | 3.2 | 0.00 | 0.00 | 0.00 | 62 | 1014.5 |
| 20260503130112 | 9 | 44 | 1.6 | 4.8 | 0.00 | 0.00 | 0.00 | 61 | 1014.5 |
| 20260503110720 | 11 | 141 | 14.5 | 16.1 | 0.00 | 0.00 | 0.00 | 50 | 1015.4 |
| 20260503110504 | 11 | 136 | 11.3 | 14.5 | 0.00 | 0.00 | 0.00 | 51 | 1015.3 |